CAPE
1712 1884 1929 1844 1656 1655 1738 1817 1992 2050 1933 1873 1844 1782 1691 1594 1475 1429 1374 1310 1266 1233 1235 1299 1361 1343 1455 1607 1847 2082 2229 2281 2236 2258 2212 2147 1995 1829 1793 1800 1855 1801 1608 1485 1411 1320 1244 1154 1079 1017 1012 995 925 843 808 684 476 461 484 306 136 122 60 8 0 9 23 0 0 0 0 0 0 0 0 0 0 0 0 0 0 0 0 0 0
1745 1887 1917 1865 1742 1547 1642 1891 1995 1965 2026 1975 1905 1833 1730 1714 1589 1478 1419 1368 1397 1315 1273 1344 1494 1478 1568 1637 1773 1994 2223 2339 2359 2278 2238 2137 1928 1904 1984 1954 1868 1718 1621 1530 1422 1305 1204 1121 1146 1170 1088 936 798 673 560 457 436 412 318 424 266 143 87 0 0 0 0 0 0 0 0 0 0 0 0 0 0 0 0 0 0 0 0 0 0
1620 1777 1788 1795 1753 1605 1678 1924 2046 2044 2080 2076 2026 1930 1814 1744 1678 1572 1467 1390 1545 1521 1468 1505 1616 1677 1714 1768 1886 2070 2284 2405 2370 2410 2326 2149 1977 1946 1876 1814 1750 1637 1512 1327 1231 1173 1167 1245 1240 1080 934 795 673 610 546 513 358 370 484 360 321 214 154 31 22 0 0 2 5 8 4 0 0 0 0 0 0 0 0 0 0 0 0 0 0
1624 1670 1611 1638 1659 1706 1821 1968 1928 2054 2090 2089 2064 1991 1889 1811 1722 1631 1569 1658 1654 1689 1687 1710 1821 1867 1918 1967 2083 2221 2359 2463 2394 2373 2291 2142 2012 1937 1870 1780 1633 1336 1246 1194 1210 1220 1275 1214 1037 907 807 715 613 522 449 395 410 372 401 268 281 154 104 62 2 0 8 7 0 0 0 0 0 0 0 0 0 0 0 0 0 0 0 0 0
1667 1510 1522 1659 1692 1786 1758 1609 1882 2027 2052 2061 2053 1983 1934 1853 1767 1693 1710 1862 1874 1862 1879 1888 1967 2059 2090 2175 2270 2378 2468 2414 2366 2293 2185 2061 1983 1827 1553 1390 1345 1291 1278 1423 1387 1255 1169 1040 920 812 681 517 414 0 0 122 234 270 318 320 213 59 43 36 32 19 11 2 0 0 0 0 0 0 0 0 0 0 0 0 0 0 0 0 0
2043 1715 1622 1648 1727 1883 1688 1632 1875 2020 1986 2014 2026 1998 1928 1983 2004 1860 1830 1997 2099 2093 2139 2133 2135 2197 2278 2343 2433 2456 2422 2390 2297 2207 2003 1858 1560 1325 1385 1354 1345 1406 1455 1372 1224 1144 1074 950 814 676 444 19 0 0 8 42 82 117 72 19 0 12 42 26 0 8 0 6 4 4 0 1 0 0 0 0 0 0 0 0 0 0 0 0 0
2288 2089 1833 1774 1650 1557 1477 1599 2030 2007 1978 1956 1974 1984 1948 2097 2250 2134 2018 2146 2310 2337 2310 2305 2298 2320 2354 2412 2439 2431 2360 2274 2184 1966 1734 1353 1375 1390 1421 1465 1520 1502 1370 1164 1063 1034 958 797 682 478 264 0 0 0 0 10 7 3 0 0 0 0 0 0 0 0 0 0 3 2 4 18 17 4 0 0 0 0 0 0 0 0 0 0 0
2152 2037 1814 1675 1582 1608 1719 2043 2063 2033 1992 1950 1945 2001 1985 2108 2331 2363 2291 2353 2445 2468 2396 2360 2393 2401 2401 2401 2420 2363 2341 2216 1978 1653 1490 1545 1568 1567 1520 1593 1574 1416 1255 1038 869 841 629 448 313 234 0 0 5 0 0 0 0 0 0 2 2 1 1 0 0 0 0 0 1 3 0 3 12 0 0 0 3 2 0 0 1 0 0 0 0
1820 1491 1559 1695 1672 2105 2395 2327 2200 2124 2056 2006 1957 1927 1933 2023 2284 2371 2392 2403 2465 2506 2453 2407 2455 2457 2412 2366 2418 2414 2240 1993 1743 1466 1588 1637 1630 1630 1638 1597 1454 1283 1081 836 694 585 561 475 237 164 44 21 5 2 2 1 5 3 3 2 1 1 2 2 0 4 8 7 6 6 7 4 17 4 4 7 11 8 2 1 10 5 0 0 0
1578 1518 1565 1688 1739 2102 2299 2354 2333 2220 2096 2013 1973 1956 1929 1937 2173 2313 2409 2458 2503 2490 2430 2340 2366 2456 2497 2366 2268 2224 2002 1759 1680 1697 1670 1654 1670 1633 1555 1407 1205 994 729 169 0 78 216 176 88 42 6 4 1 2 3 5 8 7 3 0 0 0 0 0 0 0 0 0 8 12 18 25 6 6 9 5 2 4 7 6 4 1 0 0 0
1659 1500 1288 1455 1629 2000 2210 2266 2272 2229 2152 2014 1938 1911 1925 1935 2008 2228 2299 2424 2516 2341 2257 2340 2380 2188 2137 2227 2312 2125 1923 1778 1734 1694 1632 1585 1497 1465 1415 1231 1014 911 716 502 386 253 14 16 10 6 5 3 1 2 4 6 8 5 1 0 0 0 0 0 0 0 0 0 4 3 12 17 1 4 11 21 21 6 0 0 0 0 0 0 0
1561 1230 1306 1448 1601 1970 2121 2119 2081 2143 2165 2144 2049 1941 1876 1820 1868 2122 2244 2332 2451 2334 2149 2279 2276 1983 1821 1974 2138 2002 1772 1643 1553 1536 1503 1446 1395 1321 1165 1124 1095 990 804 539 204 22 2 58 8 8 6 3 0 0 4 5 4 2 0 0 0 0 0 0 0 0 0 3 0 0 0 0 0 1 2 2 0 0 0 0 0 0 0 4 15
1695 1349 1124 1122 1470 1692 1666 1838 1872 1912 2001 2111 2109 1946 1890 1774 1750 2072 2226 2353 2146 2182 2276 2222 2097 1736 1744 1952 1931 1818 1684 1644 1427 1443 1430 1418 1269 1185 1149 1127 1050 948 670 384 67 0 5 9 6 7 6 2 0 2 5 4 1 0 0 0 0 0 0 0 0 0 0 0 0 0 0 0 0 0 0 0 0 0 0 0 0 1 10 14 20
1538 1298 1072 867 892 1030 1405 1531 1618 1730 1858 2040 2065 1906 1802 1574 1617 1943 2188 2255 2084 1945 2233 2085 1945 1933 1856 1754 1737 1752 1673 1529 1387 1384 1364 1353 1268 974 852 737 647 531 122 0 0 1 6 7 6 5 3 1 0 0 1 1 0 0 0 0 0 0 0 0 0 0 0 0 0 0 0 0 0 0 0 0 0 0 0 4 2 9 14 20 27
1385 1034 856 759 782 1046 1634 1693 1714 1825 1956 2062 2069 1996 1849 1551 1513 1743 1946 2046 1935 2001 2125 2042 2012 1965 1846 1726 1543 1614 1587 1540 1519 1481 1410 1196 850 577 431 333 366 116 0 0 0 6 4 2 1 1 1 0 0 0 0 0 0 0 0 0 0 0 0 0 0 0 0 0 0 0 0 0 0 0 0 1 6 8 10 14 18 16 12 6 0
1243 840 670 611 726 1079 1608 1841 1821 1930 2062 2164 2122 2081 1942 1745 1556 1738 1862 1932 1877 1813 1688 1822 1944 1792 1617 1681 1529 1674 1666 1678 1606 1393 1126 656 437 48 0 69 0 0 0 0 0 0 0 0 0 0 0 0 0 0 0 0 0 0 0 0 0 0 0 0 0 0 0 0 0 0 0 0 4 9 8 10 13 13 13 7 1 0 0 0 0
1197 926 735 768 982 1223 1545 1852 1927 1932 2034 2092 2108 2010 1836 1662 1520 1761 1897 1933 1901 1821 1869 1965 1894 1808 1595 1461 1571 1695 1674 1510 1236 971 638 456 408 0 0 0 0 0 0 0 0 0 0 0 0 0 0 0 0 0 0 0 0 0 0 0 0 0 0 0 0 0 0 0 0 0 0 2 5 5 11 12 4 0 0 0 0 0 0 0 0
1208 866 821 858 964 1247 1586 1758 1880 1969 2004 2068 2134 2118 1893 1483 1535 1787 1920 1965 1834 1805 1665 1871 1765 1598 1628 1436 1488 1563 1396 1122 913 650 521 439 145 0 0 0 0 0 0 0 0 0 0 0 0 0 0 0 0 0 0 0 0 0 0 0 0 0 0 0 0 0 0 0 0 0 0 0 0 0 0 0 1 1 0 0 0 0 0 0 2
1366 1001 1026 1219 1345 1458 1591 1590 1738 1864 1966 2004 2025 2109 1885 1470 1532 1723 1881 1912 1755 1379 1717 1778 1646 1408 1417 1533 1428 1286 1088 926 766 574 488 388 0 108 0 0 0 0 0 0 0 0 0 0 0 0 0 0 0 0 0 0 0 0 0 0 0 0 0 0 0 0 0 0 0 0 0 0 0 0 4 6 7 9 8 3 2 1 0 3 5
1304 1282 1216 1220 1244 1370 1297 1602 1776 1838 1896 1981 1953 2096 1858 1596 1592 1725 1823 1686 1332 1406 1880 1797 1521 1392 1299 1282 1248 1182 1048 824 672 490 86 0 118 240 0 0 0 0 0 0 0 0 0 0 0 0 0 0 0 0 0 0 0 0 0 0 0 14 0 0 0 0 0 0 0 0 0 0 1 2 7 12 16 16 10 3 0 0 0 0 0
1280 1232 938 755 778 902 1247 1715 1956 2030 2049 2096 2103 2166 1957 1821 1791 1652 1643 1575 1216 1506 1772 1537 1491 1371 1165 1159 1149 1096 970 708 514 233 0 0 96 245 0 0 0 0 0 0 0 0 0 0 0 0 0 0 0 0 0 0 0 0 0 0 0 0 0 0 0 0 0 1 0 0 0 1 2 3 2 14 17 12 5 1 0 0 0 0 0
1155 775 710 940 1174 1280 1430 1769 2012 2050 2096 2198 2266 2221 2133 2063 1940 1878 1848 1801 1560 1565 1590 1555 1443 1238 1093 1096 1062 978 738 481 0 0 0 0 0 0 0 0 0 0 0 0 0 0 0 0 0 0 0 0 0 0 0 0 0 0 0 0 0 0 0 0 0 5 5 1 1 0 0 0 0 1 3 1 10 2 0 0 0 0 0 0 0
1193 954 1116 1436 1336 1251 1472 1680 1884 1946 2028 2115 2165 2111 2175 2082 1854 1800 1803 1743 1682 1618 1564 1455 1323 1188 1030 956 914 774 524 0 0 0 0 0 0 0 0 0 0 0 0 0 0 0 0 0 0 0 0 0 0 0 0 0 0 0 0 0 0 0 0 0 0 0 0 0 0 0 0 0 0 2 4 8 8 5 4 1 0 0 0 0 0
972 1031 1076 1130 1267 1320 1302 1353 1251 1210 1328 1386 1631 1867 2089 2031 1972 1987 1913 1831 1618 1479 1407 1355 1276 1126 997 896 776 588 262 0 0 0 0 0 0 0 0 0 0 0 0 0 0 0 0 0 0 0 0 0 0 0 0 0 3 2 0 0 13 28 26 0 0 2 1 0 0 0 0 0 1 2 5 8 8 7 4 2 0 0 0 0 0
1020 1094 1056 1091 1050 984 969 947 716 601 542 948 1454 1982 2148 2054 2040 1965 1817 1666 1585 1514 1446 1348 1238 1052 950 826 630 336 0 0 0 0 0 0 0 0 0 0 0 0 0 0 0 0 0 0 0 0 0 0 0 0 0 11 15 7 6 4 12 13 19 17 9 0 6 1 0 0 0 2 4 9 11 7 4 5 8 4 1 0 0 0 0
1114 964 792 733 942 980 618 400 462 527 471 730 1507 2213 2165 2016 1899 1843 1765 1726 1656 1590 1542 1382 1152 983 911 818 654 520 0 0 0 0 68 0 0 0 0 0 0 0 0 0 0 0 0 0 0 0 0 0 0 3 8 6 2 3 3 4 8 18 13 6 6 8 0 1 1 4 3 9 5 7 5 5 3 4 5 7 4 0 0 0 0
708 727 792 905 886 668 244 301 415 554 941 1360 1951 1962 1980 1989 1933 1928 1824 1717 1611 1494 1359 1128 966 956 910 785 636 496 339 0 0 288 0 0 0 1 0 0 0 0 0 0 0 0 0 0 0 0 0 0 0 14 20 2 1 0 0 4 12 14 8 3 9 10 3 4 4 4 2 11 15 15 14 12 7 5 5 3 0 0 0 0 0
558 596 702 617 644 596 371 364 694 1449 1962 2162 2029 1935 1850 1820 1735 1634 1560 1470 1403 1239 1044 925 956 923 834 698 600 416 358 0 278 304 0 0 2 1 0 0 0 0 0 0 0 0 2 2 1 2 2 4 11 20 14 14 3 2 4 1 2 7 6 1 7 5 3 5 0 0 12 20 20 19 13 2 0 4 2 3 2 1 0 0 0
432 424 585 558 580 623 772 901 1244 1956 2167 2098 1835 1713 1545 1442 1323 1340 1262 1173 1050 962 970 984 965 924 806 651 551 459 333 360 398 219 0 0 38 173 0 0 0 0 0 0 1 2 5 11 16 15 15 21 14 17 11 4 0 13 3 3 6 4 1 10 12 16 18 12 14 15 13 16 13 3 0 0 0 0 1 2 0 0 0 0 0
436 515 726 1074 1101 1121 1380 1726 1885 1951 1863 1640 1523 1412 1418 1387 1396 1296 1188 1058 1028 1033 1042 1066 1008 956 858 760 549 90 68 0 131 0 0 0 1 4 2 0 0 0 1 6 7 10 7 16 27 31 31 13 24 6 13 6 1 4 6 2 3 8 11 6 4 2 4 12 15 12 10 6 4 0 0 1 0 0 0 0 0 0 0 0 0
850 934 1318 1267 1518 1781 1895 1913 1800 1646 1518 1467 1417 1321 1278 1156 1096 1001 1029 1011 1043 1073 1066 1006 879 766 660 596 504 436 75 0 0 0 0 0 0 3 6 5 3 2 4 5 3 1 0 0 26 10 13 11 13 67 10 3 3 0 0 5 6 6 10 6 4 5 6 9 7 2 6 6 6 6 5 0 0 0 0 0 0 0 0 0 0
743 892 1507 1704 1798 1840 1802 1733 1638 1592 1517 1396 1240 956 863 784 682 631 609 626 689 851 919 793 654 545 447 370 160 32 0 0 79 37 0 0 0 1 2 5 10 11 5 4 5 6 6 10 31 71 73 38 64 0 1 3 4 3 6 2 10 5 3 0 2 7 5 3 5 8 14 18 6 2 0 0 0 0 0 0 0 0 0 0 0
994 1452 1608 1771 1728 1683 1618 1659 1620 1591 1473 1289 1071 814 599 309 224 140 186 343 542 584 455 569 515 404 294 206 167 103 22 0 0 18 4 0 2 16 2 3 8 6 4 11 9 3 4 21 59 42 0 3 5 4 4 2 4 10 11 5 2 2 2 0 0 0 1 2 6 14 7 1 2 0 0 0 0 1 1 5 0 0 0 0 0
1351 1399 1581 1648 1617 1617 1527 1507 1376 1362 1345 1246 967 443 286 186 89 174 282 307 392 483 561 409 257 158 241 179 154 91 94 3 26 11 0 0 44 48 32 21 16 19 6 9 7 34 15 3 2 5 25 12 6 16 6 2 0 0 0 1 7 5 0 1 0 5 7 11 5 3 0 0 0 0 0 0 0 0 7 2 0 0 0 0 0
1149 1350 1470 1393 1268 1280 1216 1196 1073 1006 896 593 392 458 346 396 242 196 203 256 315 331 188 190 239 180 135 112 134 112 66 0 0 0 0 2 7 14 16 17 18 25 18 8 5 29 42 14 13 10 9 6 6 6 6 13 14 22 24 9 8 3 3 10 14 13 9 5 4 3 0 1 4 4 6 8 8 8 9 1 0 0 0 0 0
726 891 993 941 988 964 876 830 550 392 431 445 406 386 364 306 281 255 266 229 240 232 217 214 222 179 140 114 83 44 25 19 9 5 1 3 4 6 4 11 13 15 13 15 7 8 5 6 26 28 17 10 8 12 2 0 13 29 24 17 13 16 17 28 24 8 8 6 7 5 6 7 10 17 12 10 2 5 1 0 0 0 0 0 0
662 661 644 595 461 449 338 222 294 284 308 235 175 177 199 100 83 73 170 208 248 237 224 209 42 2 2 30 14 20 22 29 36 26 23 29 28 10 6 8 7 7 6 6 6 11 9 4 6 6 6 6 4 2 7 11 14 9 4 8 18 16 18 21 16 9 8 9 7 6 12 20 21 16 10 6 0 0 0 0 0 0 0 0 0
305 221 246 221 209 184 179 142 121 63 55 54 70 107 29 19 146 36 37 31 27 105 31 20 25 2 22 41 38 37 36 20 18 26 27 18 3 0 0 0 9 6 0 3 2 2 0 2 1 0 0 0 2 0 6 1 1 9 19 14 14 23 10 8 6 6 3 5 8 9 17 17 3 0 0 0 4 0 0 0 0 0 0 0 0
194 96 77 82 43 55 53 34 30 6 6 12 5 2 4 13 30 24 6 6 15 31 44 35 40 68 31 22 8 4 7 21 25 23 18 16 14 15 18 14 16 9 0 2 3 1 0 2 1 1 1 1 6 6 5 18 18 11 6 7 5 4 4 7 12 9 10 12 10 8 3 1 0 0 0 0 0 0 0 0 0 0 0 0 0
84 134 131 116 40 20 26 2 1 2 4 6 10 16 22 31 23 11 5 8 7 12 23 13 11 12 4 2 9 17 20 20 29 35 24 4 4 0 0 5 10 12 16 11 5 8 1 1 0 0 0 8 6 7 8 14 13 9 10 11 5 5 5 3 5 9 14 12 7 3 0 0 0 0 0 0 0 0 0 0 0 0 0 0 0
60 52 53 52 56 48 22 9 5 3 3 3 1 2 5 10 8 2 4 6 3 2 2 0 1 1 2 1 18 23 21 17 6 0 0 1 0 0 1 4 8 14 22 23 14 10 1 1 1 4 4 5 3 1 1 2 2 9 7 7 3 2 3 1 8 11 6 1 0 0 0 0 0 0 0 0 0 0 0 0 0 0 0 0 0
2 1 1 1 2 6 9 13 16 14 18 21 25 38 34 28 10 4 2 3 2 0 0 0 0 3 4 10 10 5 0 0 0 0 0 0 5 7 8 9 11 14 15 7 3 3 4 2 2 2 0 0 1 0 1 0 1 1 2 2 4 2 0 1 0 0 1 3 1 0 0 0 0 0 0 0 0 0 0 0 0 0 0 0 0
6 9 10 10 10 6 7 8 10 11 13 14 15 15 13 16 15 12 10 4 1 3 5 6 2 0 0 0 0 0 0 0 2 5 5 3 1 1 1 0 0 0 0 0 1 0 1 0 0 0 0 0 0 0 1 2 2 3 6 5 2 0 0 0 2 2 3 2 0 0 0 0 0 0 0 0 0 0 0 0 0 0 0 0 0
1 2 2 4 6 4 4 7 6 7 7 9 8 9 8 10 8 6 4 3 5 3 2 1 0 0 0 0 0 0 0 0 0 0 0 0 0 0 0 0 0 0 0 0 0 0 0 0 0 0 0 0 0 0 2 0 0 0 2 2 0 0 0 0 0 0 0 0 0 0 0 0 0 0 0 0 0 0 0 0 0 0 0 0 0
0 1 0 0 0 0 1 1 2 2 4 4 2 1 2 1 0 0 2 0 2 5 5 4 2 0 0 0 0 0 0 0 0 0 0 0 0 0 0 0 0 0 0 0 0 0 0 0 0 0 0 0 0 0 0 0 0 0 0 0 0 0 0 0 0 0 0 0 0 0 0 0 0 0 0 0 0 0 0 0 0 0 0 0 0
2 2 2 3 4 4 4 3 3 2 3 8 10 10 9 7 9 11 12 10 8 3 1 1 2 2 1 0 0 0 0 0 0 0 0 0 0 0 0 0 0 0 0 0 0 0 0 0 0 0 2 0 0 0 0 0 0 0 0 0 0 0 0 0 0 0 0 0 0 0 0 0 0 0 0 0 0 0 0 0 0 0 0 0 0
2 2 2 4 5 4 3 4 4 4 5 8 9 10 7 6 10 10 8 7 7 6 5 2 2 2 1 0 0 0 0 0 0 0 0 0 0 0 0 0 0 0 0 0 0 0 0 0 0 0 0 0 0 0 0 0 0 0 0 0 0 0 0 0 0 0 0 0 0 0 0 0 0 0 0 0 0 0 0 0 0 0 0 0 0
1 3 4 2 3 7 8 9 8 9 6 8 6 6 8 10 9 8 5 3 5 6 6 4 3 1 0 0 0 0 0 0 0 0 0 0 0 0 0 0 0 0 0 0 0 0 1 0 0 0 0 0 0 0 0 0 0 0 0 0 0 0 0 0 0 0 0 0 0 0 0 0 0 0 0 0 0 0 0 0 0 0 0 0 0
0 0 2 6 9 10 8 8 10 13 14 12 8 9 11 8 8 7 7 6 6 6 5 2 1 0 0 0 0 0 0 0 0 0 0 0 0 0 0 0 0 0 0 0 0 0 0 0 0 0 0 0 0 0 0 0 0 0 0 0 0 0 0 0 0 0 0 0 0 0 0 0 0 0 0 0 0 0 0 0 0 0 0 0 0
0 0 0 2 5 7 8 11 12 14 13 10 10 11 9 6 4 5 5 4 4 3 1 1 0 0 0 0 0 0 0 0 0 0 0 0 0 0 0 0 0 0 0 0 0 0 0 0 0 0 0 0 0 0 0 0 0 0 0 0 0 0 0 0 0 0 0 0 0 0 0 0 0 0 0 0 0 0 0 0 0 0 0 0 0
0 0 0 0 0 2 6 9 11 9 7 9 12 12 9 6 4 3 1 0 1 0 1 0 0 0 0 0 0 0 0 0 0 0 0 0 0 0 0 0 0 0 0 0 0 0 0 0 0 0 0 0 0 0 0 0 0 0 0 0 0 0 0 0 0 0 0 0 0 0 0 0 0 0 0 0 0 0 0 0 0 0 0 0 0
Wind_Speed
44 44 43 42 39 36 39 38 36 36 33 29 26 23 23 21 20 19 20 18 19 18 17 17 16 17 17 18 19 20 20 21 21 23 23 21 19 20 22 23 21 18 19 20 21 21 21 20 20 20 22 24 23 22 21 22 23 21 18 15 14 12 nan nan nan nan nan nan nan nan nan nan nan nan nan nan nan nan nan nan nan nan nan nan nan
44 45 44 41 34 34 39 39 37 38 33 30 26 23 22 20 20 21 19 19 19 18 18 17 17 17 18 18 19 19 20 21 22 23 23 22 21 20 20 21 21 21 21 22 23 22 21 19 18 18 20 21 22 23 22 22 21 20 18 18 17 16 nan nan nan nan nan nan nan nan nan nan nan nan nan nan nan nan nan nan nan nan nan nan nan
45 47 46 40 34 39 44 41 39 37 31 28 24 22 22 20 21 20 20 20 19 19 18 18 17 17 18 19 19 19 21 22 23 23 23 24 23 21 20 21 21 22 21 21 23 23 22 20 18 18 18 19 20 20 21 21 21 20 19 18 18 18 18 nan nan nan nan nan nan nan nan nan nan nan nan nan nan nan nan nan nan nan nan nan nan
48 49 46 42 43 47 44 41 41 36 28 26 23 22 22 22 22 21 20 20 19 18 19 18 18 18 19 20 20 21 22 23 24 23 25 25 24 22 21 20 21 21 22 22 24 24 22 21 19 20 20 19 18 18 19 21 21 20 19 18 18 18 18 nan nan nan nan nan nan nan nan nan nan nan nan nan nan nan nan nan nan nan nan nan nan
46 46 44 39 40 44 43 41 37 31 27 26 23 23 24 23 22 21 21 20 19 20 18 18 18 18 20 21 21 23 24 25 24 23 24 24 24 24 22 21 21 22 23 23 25 25 23 22 21 21 21 20 20 nan nan 19 19 19 18 17 18 nan nan nan nan nan nan nan nan nan nan nan nan nan nan nan nan nan nan nan nan nan nan nan nan
57 58 52 40 35 37 38 37 32 28 26 26 24 24 24 23 22 22 21 20 20 19 18 17 18 19 20 22 23 24 25 25 24 25 24 23 23 24 23 22 22 23 23 24 25 25 24 22 21 21 22 nan nan nan nan nan nan 21 nan nan nan nan nan nan nan nan nan nan nan nan nan nan nan nan nan nan nan nan nan nan nan nan nan nan nan
43 45 42 42 45 39 33 29 28 27 27 27 26 25 24 23 23 22 21 21 21 19 18 18 18 19 21 23 23 24 26 25 25 24 23 22 23 25 25 24 24 24 24 25 25 24 24 24 23 23 24 nan nan nan nan nan nan nan nan nan nan nan nan nan nan nan nan nan nan nan nan nan nan nan nan nan nan nan nan nan nan nan nan nan nan
29 33 34 32 31 32 29 28 28 29 29 28 27 25 24 24 22 22 21 20 20 19 18 18 19 21 22 23 23 24 25 25 24 24 23 24 26 26 27 27 27 25 25 26 26 25 24 23 25 25 nan nan nan nan nan nan nan nan nan nan nan nan nan nan nan nan nan nan nan nan nan nan nan nan nan nan nan nan nan nan nan nan nan nan nan
24 31 33 30 30 31 27 29 31 31 30 28 26 24 23 23 22 20 19 19 19 19 19 20 21 22 25 22 21 23 25 24 24 25 26 26 26 27 28 28 28 28 27 28 28 28 28 25 24 26 nan nan nan nan nan nan nan nan nan nan nan nan nan nan nan nan nan nan nan nan nan nan nan nan nan nan nan nan nan nan nan nan nan nan nan
22 28 34 35 35 33 32 32 33 32 29 27 24 23 23 22 20 19 18 19 19 19 20 21 23 23 24 23 22 25 25 26 26 31 30 28 27 26 26 26 27 27 29 30 nan nan 29 27 nan nan nan nan nan nan nan nan nan nan nan nan nan nan nan nan nan nan nan nan nan nan nan nan nan nan nan nan nan nan nan nan nan nan nan nan nan
24 27 31 33 33 33 34 34 33 30 28 27 26 24 22 21 19 18 18 18 19 21 24 25 24 24 23 23 26 27 28 28 32 35 35 34 29 27 28 27 26 27 27 30 31 31 nan nan nan nan nan nan nan nan nan nan nan nan nan nan nan nan nan nan nan nan nan nan nan nan nan nan nan nan nan nan nan nan nan nan nan nan nan nan nan
28 32 32 32 33 32 32 33 32 31 29 27 26 23 21 19 18 18 18 18 21 25 21 23 27 26 23 24 27 28 28 29 35 35 34 34 31 28 27 27 26 27 28 30 31 nan nan nan nan nan nan nan nan nan nan nan nan nan nan nan nan nan nan nan nan nan nan nan nan nan nan nan nan nan nan nan nan nan nan nan nan nan nan nan nan
31 33 31 29 31 34 33 33 32 32 30 29 26 23 20 18 18 18 16 20 23 19 22 25 25 27 26 27 28 28 28 28 36 36 33 32 34 32 27 26 27 28 29 30 nan nan nan nan nan nan nan nan nan nan nan nan nan nan nan nan nan nan nan nan nan nan nan nan nan nan nan nan nan nan nan nan nan nan nan nan nan nan nan nan nan
29 31 30 28 34 37 37 34 31 32 32 30 26 22 19 17 18 18 18 20 19 20 23 23 24 27 28 28 28 28 29 28 36 37 34 33 33 30 27 27 27 30 30 nan nan nan nan nan nan nan nan nan nan nan nan nan nan nan nan nan nan nan nan nan nan nan nan nan nan nan nan nan nan nan nan nan nan nan nan nan nan nan nan nan nan
30 29 28 31 34 36 36 34 32 32 33 30 25 21 20 19 19 18 17 18 21 21 23 23 24 27 27 28 30 29 27 31 35 37 34 32 31 29 27 26 28 31 nan nan nan nan nan nan nan nan nan nan nan nan nan nan nan nan nan nan nan nan nan nan nan nan nan nan nan nan nan nan nan nan nan nan nan nan nan nan nan nan nan nan nan
28 27 29 30 30 32 34 35 32 32 32 29 24 21 20 19 18 18 19 23 24 25 27 26 26 25 25 30 31 29 28 30 32 32 30 28 29 nan nan nan nan nan nan nan nan nan nan nan nan nan nan nan nan nan nan nan nan nan nan nan nan nan nan nan nan nan nan nan nan nan nan nan nan nan nan nan nan nan nan nan nan nan nan nan nan
24 22 24 27 28 30 34 34 32 30 30 27 23 22 21 19 19 19 21 22 23 24 25 24 24 27 27 29 32 29 28 27 29 26 25 26 28 nan nan nan nan nan nan nan nan nan nan nan nan nan nan nan nan nan nan nan nan nan nan nan nan nan nan nan nan nan nan nan nan nan nan nan nan nan nan nan nan nan nan nan nan nan nan nan nan
20 18 20 23 25 29 34 33 30 28 27 24 24 24 22 20 18 18 20 21 23 27 26 24 25 24 28 29 30 31 28 28 27 25 21 23 26 nan nan nan nan nan nan nan nan nan nan nan nan nan nan nan nan nan nan nan nan nan nan nan nan nan nan nan nan nan nan nan nan nan nan nan nan nan nan nan nan nan nan nan nan nan nan nan nan
16 15 17 23 28 30 32 32 28 24 24 26 26 24 21 18 18 19 20 21 27 27 25 25 25 24 27 31 33 33 30 28 28 25 19 20 nan 28 nan nan nan nan nan nan nan nan nan nan nan nan nan nan nan nan nan nan nan nan nan nan nan nan nan nan nan nan nan nan nan nan nan nan nan nan nan nan nan nan nan nan nan nan nan nan nan
14 18 23 26 27 27 28 27 24 22 25 27 26 24 22 21 19 20 20 24 28 27 26 25 27 27 29 32 31 31 32 30 28 26 nan nan 25 28 nan nan nan nan nan nan nan nan nan nan nan nan nan nan nan nan nan nan nan nan nan nan nan nan nan nan nan nan nan nan nan nan nan nan nan nan nan nan nan nan nan nan nan nan nan nan nan
22 22 24 27 29 30 29 24 22 24 27 27 26 24 21 19 21 22 23 26 27 27 26 26 29 30 30 31 31 30 31 33 28 26 nan nan nan 31 nan nan nan nan nan nan nan nan nan nan nan nan nan nan nan nan nan nan nan nan nan nan nan nan nan nan nan nan nan nan nan nan nan nan nan nan nan nan nan nan nan nan nan nan nan nan nan
23 24 24 24 27 30 28 28 28 29 30 28 24 22 21 21 21 22 23 24 26 27 27 28 30 31 31 31 31 31 29 30 nan nan nan nan nan nan nan nan nan nan nan nan nan nan nan nan nan nan nan nan nan nan nan nan nan nan nan nan nan nan nan nan nan nan nan nan nan nan nan nan nan nan nan nan nan nan nan nan nan nan nan nan nan
25 26 24 22 24 25 27 26 24 25 26 24 22 22 22 22 21 22 23 24 27 28 28 29 30 32 32 31 31 31 31 nan nan nan nan nan nan nan nan nan nan nan nan nan nan nan nan nan nan nan nan nan nan nan nan nan nan nan nan nan nan nan nan nan nan nan nan nan nan nan nan nan nan nan nan nan nan nan nan nan nan nan nan nan nan
29 28 26 25 24 23 21 20 20 24 26 22 19 22 22 20 21 21 22 24 25 26 27 28 30 31 31 31 31 31 31 nan nan nan nan nan nan nan nan nan nan nan nan nan nan nan nan nan nan nan nan nan nan nan nan nan nan nan nan nan nan nan nan nan nan nan nan nan nan nan nan nan nan nan nan nan nan nan nan nan nan nan nan nan nan
33 28 24 25 25 21 18 18 23 30 26 20 17 19 20 19 21 20 21 23 24 26 26 28 29 29 30 30 31 31 nan nan nan nan nan nan nan nan nan nan nan nan nan nan nan nan nan nan nan nan nan nan nan nan nan nan nan nan nan nan nan nan nan nan nan nan nan nan nan nan nan nan nan nan nan nan nan nan nan nan nan nan nan nan nan
29 24 22 21 20 18 17 23 29 28 23 15 16 18 17 18 20 19 21 22 23 25 26 27 28 28 28 30 32 30 nan nan nan nan nan nan nan nan nan nan nan nan nan nan nan nan nan nan nan nan nan nan nan nan nan nan nan nan nan nan nan nan nan nan nan nan nan nan nan nan nan nan nan nan nan nan nan nan nan nan nan nan nan nan nan
34 32 25 20 20 20 22 25 27 25 18 17 20 19 18 20 20 20 20 22 23 25 26 26 27 28 30 32 31 28 27 nan nan 29 nan nan nan nan nan nan nan nan nan nan nan nan nan nan nan nan nan nan nan nan nan nan nan nan nan nan nan nan nan nan nan nan nan nan nan nan nan nan nan nan nan nan nan nan nan nan nan nan nan nan nan
32 30 27 24 24 24 26 27 27 25 25 24 24 23 24 25 25 24 24 23 24 25 26 26 27 28 30 31 29 28 29 nan 28 29 nan nan nan nan nan nan nan nan nan nan nan nan nan nan nan nan nan nan nan nan nan nan nan nan nan nan nan nan nan nan nan nan nan nan nan nan nan nan nan nan nan nan nan nan nan nan nan nan nan nan nan
33 31 28 27 28 26 27 24 20 23 26 28 28 29 27 26 25 26 27 25 24 26 26 26 25 26 29 29 29 29 29 27 24 26 nan nan nan 32 nan nan nan nan nan nan nan nan nan nan nan nan nan nan nan nan nan nan nan nan nan nan nan nan nan nan nan nan nan nan nan nan nan nan nan nan nan nan nan nan nan nan nan nan nan nan nan
33 30 26 26 25 23 21 21 22 23 24 28 33 34 35 36 32 29 27 29 28 23 25 25 25 28 30 27 25 nan nan nan 32 nan nan nan nan nan nan nan nan nan nan nan nan nan nan nan nan nan nan nan nan nan nan nan nan nan nan nan nan nan nan nan nan nan nan nan nan nan nan nan nan nan nan nan nan nan nan nan nan nan nan nan nan
32 28 24 22 20 18 20 23 23 23 25 27 29 30 30 33 38 38 35 34 35 37 37 36 36 33 30 26 23 29 nan nan nan nan nan nan nan nan nan nan nan nan nan nan nan nan nan nan nan nan nan nan nan nan nan nan nan nan nan nan nan nan nan nan nan nan nan nan nan nan nan nan nan nan nan nan nan nan nan nan nan nan nan nan nan
28 28 28 28 25 22 21 22 23 26 27 27 27 28 30 30 31 34 36 37 38 39 37 35 35 34 31 28 26 nan nan nan nan nan nan nan nan nan nan nan nan nan nan nan nan nan nan nan nan nan nan nan nan nan nan nan nan nan nan nan nan nan nan nan nan nan nan nan nan nan nan nan nan nan nan nan nan nan nan nan nan nan nan nan nan
26 27 28 30 28 27 25 25 25 26 27 28 27 27 28 29 31 28 29 35 40 40 38 36 34 33 32 30 29 28 nan nan nan nan nan nan nan nan nan nan nan nan nan nan nan nan nan nan nan nan nan nan nan nan nan nan nan nan nan nan nan nan nan nan nan nan nan nan nan nan nan nan nan nan nan nan nan nan nan nan nan nan nan nan nan
21 23 24 26 28 29 28 27 27 28 28 29 28 29 29 29 nan 28 29 29 30 32 35 36 33 33 34 32 31 nan nan nan nan nan nan nan nan nan nan nan nan nan nan nan nan nan nan nan nan nan nan nan nan nan nan nan nan nan nan nan nan nan nan nan nan nan nan nan nan nan nan nan nan nan nan nan nan nan nan nan nan nan nan nan nan
22 25 27 26 27 29 29 29 29 29 29 29 29 30 30 29 28 28 28 30 29 27 24 25 28 30 28 27 30 33 nan nan nan nan nan nan nan nan nan nan nan nan nan nan nan nan nan nan nan nan nan nan nan nan nan nan nan nan nan nan nan nan nan nan nan nan nan nan nan nan nan nan nan nan nan nan nan nan nan nan nan nan nan nan nan
28 29 29 30 29 30 30 30 29 29 29 30 30 30 30 29 30 29 28 27 27 26 25 23 23 25 32 32 nan nan nan nan nan nan nan nan nan nan nan nan nan nan nan nan nan nan nan nan nan nan nan nan nan nan nan nan nan nan nan nan nan nan nan nan nan nan nan nan nan nan nan nan nan nan nan nan nan nan nan nan nan nan nan nan nan
30 32 32 32 31 31 31 31 31 31 31 31 30 29 29 nan nan nan 27 27 27 25 26 24 nan nan nan nan nan nan nan nan nan nan nan nan nan nan nan nan nan nan nan nan nan nan nan nan nan nan nan nan nan nan nan nan nan nan nan nan nan nan nan nan nan nan nan nan nan nan nan nan nan nan nan nan nan nan nan nan nan nan nan nan nan
32 31 30 31 31 31 31 31 31 nan nan nan nan 28 nan nan 27 nan nan nan nan 26 nan nan nan nan nan nan nan nan nan nan nan nan nan nan nan nan nan nan nan nan nan nan nan nan nan nan nan nan nan nan nan nan nan nan nan nan nan nan nan nan nan nan nan nan nan nan nan nan nan nan nan nan nan nan nan nan nan nan nan nan nan nan nan
32 nan nan nan nan nan nan nan nan nan nan nan nan nan nan nan nan nan nan nan nan nan nan nan nan nan nan nan nan nan nan nan nan nan nan nan nan nan nan nan nan nan nan nan nan nan nan nan nan nan nan nan nan nan nan nan nan nan nan nan nan nan nan nan nan nan nan nan nan nan nan nan nan nan nan nan nan nan nan nan nan nan nan nan nan
nan 29 30 33 nan nan nan nan nan nan nan nan nan nan nan nan nan nan nan nan nan nan nan nan nan nan nan nan nan nan nan nan nan nan nan nan nan nan nan nan nan nan nan nan nan nan nan nan nan nan nan nan nan nan nan nan nan nan nan nan nan nan nan nan nan nan nan nan nan nan nan nan nan nan nan nan nan nan nan nan nan nan nan nan nan
nan nan nan nan nan nan nan nan nan nan nan nan nan nan nan nan nan nan nan nan nan nan nan nan nan nan nan nan nan nan nan nan nan nan nan nan nan nan nan nan nan nan nan nan nan nan nan nan nan nan nan nan nan nan nan nan nan nan nan nan nan nan nan nan nan nan nan nan nan nan nan nan nan nan nan nan nan nan nan nan nan nan nan nan nan
nan nan nan nan nan nan nan nan nan nan nan nan nan nan nan nan nan nan nan nan nan nan nan nan nan nan nan nan nan nan nan nan nan nan nan nan nan nan nan nan nan nan nan nan nan nan nan nan nan nan nan nan nan nan nan nan nan nan nan nan nan nan nan nan nan nan nan nan nan nan nan nan nan nan nan nan nan nan nan nan nan nan nan nan nan
nan nan nan nan nan nan nan nan nan nan nan nan nan nan nan nan nan nan nan nan nan nan nan nan nan nan nan nan nan nan nan nan nan nan nan nan nan nan nan nan nan nan nan nan nan nan nan nan nan nan nan nan nan nan nan nan nan nan nan nan nan nan nan nan nan nan nan nan nan nan nan nan nan nan nan nan nan nan nan nan nan nan nan nan nan
nan nan nan nan nan nan nan nan nan nan nan nan nan nan nan nan nan nan nan nan nan nan nan nan nan nan nan nan nan nan nan nan nan nan nan nan nan nan nan nan nan nan nan nan nan nan nan nan nan nan nan nan nan nan nan nan nan nan nan nan nan nan nan nan nan nan nan nan nan nan nan nan nan nan nan nan nan nan nan nan nan nan nan nan nan
nan nan nan nan nan nan nan nan nan nan nan nan nan nan nan nan nan nan nan nan nan nan nan nan nan nan nan nan nan nan nan nan nan nan nan nan nan nan nan nan nan nan nan nan nan nan nan nan nan nan nan nan nan nan nan nan nan nan nan nan nan nan nan nan nan nan nan nan nan nan nan nan nan nan nan nan nan nan nan nan nan nan nan nan nan
nan nan nan nan nan nan nan nan nan nan nan nan nan nan nan nan nan nan nan nan nan nan nan nan nan nan nan nan nan nan nan nan nan nan nan nan nan nan nan nan nan nan nan nan nan nan nan nan nan nan nan nan nan nan nan nan nan nan nan nan nan nan nan nan nan nan nan nan nan nan nan nan nan nan nan nan nan nan nan nan nan nan nan nan nan
nan nan nan nan nan nan nan nan nan nan nan nan nan nan nan nan nan nan nan nan nan nan nan nan nan nan nan nan nan nan nan nan nan nan nan nan nan nan nan nan nan nan nan nan nan nan nan nan nan nan nan nan nan nan nan nan nan nan nan nan nan nan nan nan nan nan nan nan nan nan nan nan nan nan nan nan nan nan nan nan nan nan nan nan nan
nan nan nan nan nan nan nan nan nan nan nan nan nan nan nan nan nan nan nan nan nan nan nan nan nan nan nan nan nan nan nan nan nan nan nan nan nan nan nan nan nan nan nan nan nan nan nan nan nan nan nan nan nan nan nan nan nan nan nan nan nan nan nan nan nan nan nan nan nan nan nan nan nan nan nan nan nan nan nan nan nan nan nan nan nan
nan nan nan nan nan nan nan nan nan nan nan nan nan nan nan nan nan nan nan nan nan nan nan nan nan nan nan nan nan nan nan nan nan nan nan nan nan nan nan nan nan nan nan nan nan nan nan nan nan nan nan nan nan nan nan nan nan nan nan nan nan nan nan nan nan nan nan nan nan nan nan nan nan nan nan nan nan nan nan nan nan nan nan nan nan
nan nan nan nan nan nan nan nan nan nan nan nan nan nan nan nan nan nan nan nan nan nan nan nan nan nan nan nan nan nan nan nan nan nan nan nan nan nan nan nan nan nan nan nan nan nan nan nan nan nan nan nan nan nan nan nan nan nan nan nan nan nan nan nan nan nan nan nan nan nan nan nan nan nan nan nan nan nan nan nan nan nan nan nan nan
nan nan nan nan nan nan nan nan nan nan nan nan nan nan nan nan nan nan nan nan nan nan nan nan nan nan nan nan nan nan nan nan nan nan nan nan nan nan nan nan nan nan nan nan nan nan nan nan nan nan nan nan nan nan nan nan nan nan nan nan nan nan nan nan nan nan nan nan nan nan nan nan nan nan nan nan nan nan nan nan nan nan nan nan nan
Wind_Direction
223 223 224 225 225 216 206 206 213 215 218 220 223 229 236 246 256 262 263 273 280 283 281 279 278 280 282 283 285 287 290 291 292 294 299 305 307 307 305 310 314 320 319 321 323 324 326 328 333 333 328 333 337 342 344 341 342 355 348 338 340 327 nan nan nan nan nan nan nan nan nan nan nan nan nan nan nan nan nan nan nan nan nan nan nan
220 221 222 223 222 211 203 206 212 214 217 219 224 232 238 248 255 257 268 274 278 283 281 274 273 278 279 281 283 287 290 292 290 292 299 303 305 302 307 311 312 316 319 321 322 325 325 332 338 339 336 338 337 341 343 340 341 348 352 349 348 336 nan nan nan nan nan nan nan nan nan nan nan nan nan nan nan nan nan nan nan nan nan nan nan
220 220 220 220 214 205 201 203 209 212 216 220 226 233 239 248 253 262 269 273 277 279 276 275 276 278 279 279 282 285 288 288 287 292 299 302 304 305 310 311 312 316 319 320 320 319 323 332 337 337 333 335 336 338 337 337 338 345 346 339 340 331 313 nan nan nan nan nan nan nan nan nan nan nan nan nan nan nan nan nan nan nan nan nan nan
219 219 219 215 208 201 198 200 206 209 214 221 229 235 241 248 253 262 270 273 280 274 272 276 277 281 281 278 280 281 282 282 287 294 299 301 306 311 312 311 310 313 316 316 317 319 327 330 334 331 329 330 327 329 332 332 333 333 328 326 325 326 322 nan nan nan nan nan nan nan nan nan nan nan nan nan nan nan nan nan nan nan nan nan nan
219 219 222 221 206 196 192 196 203 207 213 220 230 237 242 250 256 265 270 277 277 272 269 274 279 281 281 277 278 279 280 283 288 291 294 300 308 310 311 310 307 309 313 316 317 320 325 332 331 330 328 329 321 nan nan 323 319 318 320 323 324 nan nan nan nan nan nan nan nan nan nan nan nan nan nan nan nan nan nan nan nan nan nan nan nan
210 209 204 202 205 200 191 191 198 206 214 221 231 237 242 250 258 263 274 276 273 270 272 273 278 281 278 278 280 281 283 286 289 292 296 300 305 309 310 310 308 308 311 312 313 317 324 326 326 326 324 nan nan nan nan nan nan 319 nan nan nan nan nan nan nan nan nan nan nan nan nan nan nan nan nan nan nan nan nan nan nan nan nan nan nan
215 216 212 205 196 191 192 190 200 209 215 222 228 233 241 249 257 266 272 274 272 270 271 277 277 281 277 279 282 284 287 288 289 293 297 303 306 302 301 301 301 304 306 306 307 310 312 317 322 324 323 nan nan nan nan nan nan nan nan nan nan nan nan nan nan nan nan nan nan nan nan nan nan nan nan nan nan nan nan nan nan nan nan nan nan
218 219 218 213 203 192 187 197 206 213 218 222 226 232 239 246 255 264 269 272 271 271 273 275 274 272 276 278 280 282 285 285 289 294 299 298 298 301 303 302 299 297 297 296 298 302 307 313 317 318 nan nan nan nan nan nan nan nan nan nan nan nan nan nan nan nan nan nan nan nan nan nan nan nan nan nan nan nan nan nan nan nan nan nan nan
216 209 211 214 208 203 206 207 212 217 221 223 227 233 240 246 253 264 268 267 263 266 268 272 269 265 263 259 265 273 274 278 283 290 290 292 297 301 303 301 299 298 296 295 296 299 299 303 308 312 nan nan nan nan nan nan nan nan nan nan nan nan nan nan nan nan nan nan nan nan nan nan nan nan nan nan nan nan nan nan nan nan nan nan nan
215 209 205 207 213 212 214 216 220 222 223 226 230 235 242 247 254 262 264 263 260 258 263 266 269 268 270 268 262 262 265 267 281 293 293 293 295 296 295 296 297 300 299 297 nan nan 296 298 nan nan nan nan nan nan nan nan nan nan nan nan nan nan nan nan nan nan nan nan nan nan nan nan nan nan nan nan nan nan nan nan nan nan nan nan nan
207 205 207 208 210 212 214 218 225 227 226 226 230 235 241 248 255 260 260 258 257 252 251 258 263 250 256 266 268 263 262 266 283 288 291 294 294 296 298 298 297 297 296 298 297 295 nan nan nan nan nan nan nan nan nan nan nan nan nan nan nan nan nan nan nan nan nan nan nan nan nan nan nan nan nan nan nan nan nan nan nan nan nan nan nan
207 206 208 206 206 211 212 218 227 232 231 230 231 235 240 248 255 257 256 253 248 250 260 270 262 259 258 264 268 265 263 274 285 287 293 297 298 297 298 299 300 299 299 298 297 nan nan nan nan nan nan nan nan nan nan nan nan nan nan nan nan nan nan nan nan nan nan nan nan nan nan nan nan nan nan nan nan nan nan nan nan nan nan nan nan
211 211 210 208 207 207 210 216 226 234 236 234 232 234 241 248 251 253 255 248 243 254 263 261 264 264 269 271 266 263 266 278 283 286 290 295 299 298 298 299 300 299 299 298 nan nan nan nan nan nan nan nan nan nan nan nan nan nan nan nan nan nan nan nan nan nan nan nan nan nan nan nan nan nan nan nan nan nan nan nan nan nan nan nan nan
213 214 215 214 216 212 205 207 219 230 237 237 234 235 241 246 248 250 251 248 247 251 258 262 262 267 270 269 268 267 269 274 280 284 289 295 298 296 297 300 299 299 298 nan nan nan nan nan nan nan nan nan nan nan nan nan nan nan nan nan nan nan nan nan nan nan nan nan nan nan nan nan nan nan nan nan nan nan nan nan nan nan nan nan nan
214 214 215 217 220 217 204 199 211 225 236 239 236 235 237 240 248 251 253 254 252 250 258 259 257 261 265 267 269 269 268 276 279 284 289 296 300 296 294 292 292 292 nan nan nan nan nan nan nan nan nan nan nan nan nan nan nan nan nan nan nan nan nan nan nan nan nan nan nan nan nan nan nan nan nan nan nan nan nan nan nan nan nan nan nan
215 213 218 218 223 223 214 203 207 221 235 240 238 235 236 242 251 248 245 245 243 245 249 258 266 264 262 267 268 270 270 277 279 284 289 295 296 nan nan nan nan nan nan nan nan nan nan nan nan nan nan nan nan nan nan nan nan nan nan nan nan nan nan nan nan nan nan nan nan nan nan nan nan nan nan nan nan nan nan nan nan nan nan nan nan
214 215 221 220 223 228 225 212 205 217 233 240 237 236 238 241 242 243 248 248 253 254 254 253 260 265 263 261 267 272 274 279 281 282 287 291 287 nan nan nan nan nan nan nan nan nan nan nan nan nan nan nan nan nan nan nan nan nan nan nan nan nan nan nan nan nan nan nan nan nan nan nan nan nan nan nan nan nan nan nan nan nan nan nan nan
216 219 220 219 223 229 228 220 209 215 229 236 235 234 234 236 242 241 248 250 251 249 254 256 260 264 267 268 273 276 276 275 280 280 285 293 288 nan nan nan nan nan nan nan nan nan nan nan nan nan nan nan nan nan nan nan nan nan nan nan nan nan nan nan nan nan nan nan nan nan nan nan nan nan nan nan nan nan nan nan nan nan nan nan nan
220 225 219 217 220 227 228 218 207 211 225 229 234 239 239 240 238 235 236 243 248 250 248 256 263 261 264 270 277 278 277 272 276 281 286 291 nan 285 nan nan nan nan nan nan nan nan nan nan nan nan nan nan nan nan nan nan nan nan nan nan nan nan nan nan nan nan nan nan nan nan nan nan nan nan nan nan nan nan nan nan nan nan nan nan nan
220 222 219 216 217 223 222 213 200 208 226 231 235 238 235 237 238 235 233 236 245 246 250 258 263 260 261 268 270 273 274 271 278 285 nan nan 290 287 nan nan nan nan nan nan nan nan nan nan nan nan nan nan nan nan nan nan nan nan nan nan nan nan nan nan nan nan nan nan nan nan nan nan nan nan nan nan nan nan nan nan nan nan nan nan nan
220 219 212 209 211 218 216 205 201 210 224 234 237 238 239 241 240 237 237 239 243 245 249 253 257 259 260 263 266 268 274 278 281 289 nan nan nan 292 nan nan nan nan nan nan nan nan nan nan nan nan nan nan nan nan nan nan nan nan nan nan nan nan nan nan nan nan nan nan nan nan nan nan nan nan nan nan nan nan nan nan nan nan nan nan nan
219 210 202 202 209 214 212 201 201 214 225 232 238 240 236 241 243 243 238 242 246 249 250 254 258 260 260 262 266 269 277 283 nan nan nan nan nan nan nan nan nan nan nan nan nan nan nan nan nan nan nan nan nan nan nan nan nan nan nan nan nan nan nan nan nan nan nan nan nan nan nan nan nan nan nan nan nan nan nan nan nan nan nan nan nan
209 198 195 202 209 210 208 206 209 218 227 231 234 239 239 241 238 242 244 243 248 252 256 259 263 264 263 264 264 267 269 nan nan nan nan nan nan nan nan nan nan nan nan nan nan nan nan nan nan nan nan nan nan nan nan nan nan nan nan nan nan nan nan nan nan nan nan nan nan nan nan nan nan nan nan nan nan nan nan nan nan nan nan nan nan
198 194 198 205 210 210 210 209 208 217 218 220 227 239 241 239 239 241 245 249 252 256 258 261 263 265 267 265 265 264 268 nan nan nan nan nan nan nan nan nan nan nan nan nan nan nan nan nan nan nan nan nan nan nan nan nan nan nan nan nan nan nan nan nan nan nan nan nan nan nan nan nan nan nan nan nan nan nan nan nan nan nan nan nan nan
192 200 206 207 207 205 200 204 207 206 199 202 226 238 241 243 242 235 243 248 253 257 258 260 263 266 267 269 268 265 nan nan nan nan nan nan nan nan nan nan nan nan nan nan nan nan nan nan nan nan nan nan nan nan nan nan nan nan nan nan nan nan nan nan nan nan nan nan nan nan nan nan nan nan nan nan nan nan nan nan nan nan nan nan nan
199 211 218 215 210 202 193 199 201 196 188 196 229 243 250 247 247 244 244 248 251 255 257 258 264 269 270 269 268 269 nan nan nan nan nan nan nan nan nan nan nan nan nan nan nan nan nan nan nan nan nan nan nan nan nan nan nan nan nan nan nan nan nan nan nan nan nan nan nan nan nan nan nan nan nan nan nan nan nan nan nan nan nan nan nan
206 209 216 219 213 206 199 194 198 200 198 220 231 231 234 248 252 251 251 253 253 256 260 263 264 264 268 270 272 272 276 nan nan 282 nan nan nan nan nan nan nan nan nan nan nan nan nan nan nan nan nan nan nan nan nan nan nan nan nan nan nan nan nan nan nan nan nan nan nan nan nan nan nan nan nan nan nan nan nan nan nan nan nan nan nan
213 213 210 205 204 202 201 211 219 222 222 227 229 229 228 229 237 239 241 245 257 257 257 261 266 270 271 272 274 274 278 nan 283 288 nan nan nan nan nan nan nan nan nan nan nan nan nan nan nan nan nan nan nan nan nan nan nan nan nan nan nan nan nan nan nan nan nan nan nan nan nan nan nan nan nan nan nan nan nan nan nan nan nan nan nan
217 216 211 204 199 198 199 203 226 242 242 238 235 231 223 229 236 240 236 233 238 251 261 262 264 267 273 280 283 285 285 291 296 285 nan nan nan 288 nan nan nan nan nan nan nan nan nan nan nan nan nan nan nan nan nan nan nan nan nan nan nan nan nan nan nan nan nan nan nan nan nan nan nan nan nan nan nan nan nan nan nan nan nan nan nan
224 224 223 212 202 206 211 223 233 239 244 249 249 241 237 237 234 239 235 230 243 245 250 259 261 265 266 263 270 nan nan nan 283 nan nan nan nan nan nan nan nan nan nan nan nan nan nan nan nan nan nan nan nan nan nan nan nan nan nan nan nan nan nan nan nan nan nan nan nan nan nan nan nan nan nan nan nan nan nan nan nan nan nan nan nan
228 227 224 217 209 218 229 233 237 242 244 247 249 252 248 239 238 239 242 245 248 250 253 257 264 271 275 273 268 266 nan nan nan nan nan nan nan nan nan nan nan nan nan nan nan nan nan nan nan nan nan nan nan nan nan nan nan nan nan nan nan nan nan nan nan nan nan nan nan nan nan nan nan nan nan nan nan nan nan nan nan nan nan nan nan
224 218 214 213 214 225 234 240 244 247 246 248 252 257 257 255 246 240 245 250 251 253 254 258 263 269 275 278 274 nan nan nan nan nan nan nan nan nan nan nan nan nan nan nan nan nan nan nan nan nan nan nan nan nan nan nan nan nan nan nan nan nan nan nan nan nan nan nan nan nan nan nan nan nan nan nan nan nan nan nan nan nan nan nan nan
219 216 212 214 222 229 237 244 248 252 254 254 253 255 258 261 261 258 251 253 255 254 251 251 254 258 259 256 254 262 nan nan nan nan nan nan nan nan nan nan nan nan nan nan nan nan nan nan nan nan nan nan nan nan nan nan nan nan nan nan nan nan nan nan nan nan nan nan nan nan nan nan nan nan nan nan nan nan nan nan nan nan nan nan nan
217 207 214 222 226 231 237 245 251 252 251 252 255 258 258 260 nan 266 267 262 256 252 248 244 245 253 253 255 259 nan nan nan nan nan nan nan nan nan nan nan nan nan nan nan nan nan nan nan nan nan nan nan nan nan nan nan nan nan nan nan nan nan nan nan nan nan nan nan nan nan nan nan nan nan nan nan nan nan nan nan nan nan nan nan nan
218 225 233 236 235 237 239 243 247 252 255 258 260 261 261 262 264 263 266 270 268 263 258 251 246 249 260 262 263 267 nan nan nan nan nan nan nan nan nan nan nan nan nan nan nan nan nan nan nan nan nan nan nan nan nan nan nan nan nan nan nan nan nan nan nan nan nan nan nan nan nan nan nan nan nan nan nan nan nan nan nan nan nan nan nan
231 236 239 242 242 243 246 249 253 256 258 256 258 261 264 268 269 271 271 270 271 271 264 260 264 260 260 263 nan nan nan nan nan nan nan nan nan nan nan nan nan nan nan nan nan nan nan nan nan nan nan nan nan nan nan nan nan nan nan nan nan nan nan nan nan nan nan nan nan nan nan nan nan nan nan nan nan nan nan nan nan nan nan nan nan
235 236 238 242 246 248 248 251 253 256 257 261 264 265 268 nan nan nan 270 270 269 268 270 275 nan nan nan nan nan nan nan nan nan nan nan nan nan nan nan nan nan nan nan nan nan nan nan nan nan nan nan nan nan nan nan nan nan nan nan nan nan nan nan nan nan nan nan nan nan nan nan nan nan nan nan nan nan nan nan nan nan nan nan nan nan
235 238 243 247 250 250 252 253 255 nan nan nan nan 269 nan nan 270 nan nan nan nan 275 nan nan nan nan nan nan nan nan nan nan nan nan nan nan nan nan nan nan nan nan nan nan nan nan nan nan nan nan nan nan nan nan nan nan nan nan nan nan nan nan nan nan nan nan nan nan nan nan nan nan nan nan nan nan nan nan nan nan nan nan nan nan nan
240 nan nan nan nan nan nan nan nan nan nan nan nan nan nan nan nan nan nan nan nan nan nan nan nan nan nan nan nan nan nan nan nan nan nan nan nan nan nan nan nan nan nan nan nan nan nan nan nan nan nan nan nan nan nan nan nan nan nan nan nan nan nan nan nan nan nan nan nan nan nan nan nan nan nan nan nan nan nan nan nan nan nan nan nan
nan 242 242 248 nan nan nan nan nan nan nan nan nan nan nan nan nan nan nan nan nan nan nan nan nan nan nan nan nan nan nan nan nan nan nan nan nan nan nan nan nan nan nan nan nan nan nan nan nan nan nan nan nan nan nan nan nan nan nan nan nan nan nan nan nan nan nan nan nan nan nan nan nan nan nan nan nan nan nan nan nan nan nan nan nan
nan nan nan nan nan nan nan nan nan nan nan nan nan nan nan nan nan nan nan nan nan nan nan nan nan nan nan nan nan nan nan nan nan nan nan nan nan nan nan nan nan nan nan nan nan nan nan nan nan nan nan nan nan nan nan nan nan nan nan nan nan nan nan nan nan nan nan nan nan nan nan nan nan nan nan nan nan nan nan nan nan nan nan nan nan
nan nan nan nan nan nan nan nan nan nan nan nan nan nan nan nan nan nan nan nan nan nan nan nan nan nan nan nan nan nan nan nan nan nan nan nan nan nan nan nan nan nan nan nan nan nan nan nan nan nan nan nan nan nan nan nan nan nan nan nan nan nan nan nan nan nan nan nan nan nan nan nan nan nan nan nan nan nan nan nan nan nan nan nan nan
nan nan nan nan nan nan nan nan nan nan nan nan nan nan nan nan nan nan nan nan nan nan nan nan nan nan nan nan nan nan nan nan nan nan nan nan nan nan nan nan nan nan nan nan nan nan nan nan nan nan nan nan nan nan nan nan nan nan nan nan nan nan nan nan nan nan nan nan nan nan nan nan nan nan nan nan nan nan nan nan nan nan nan nan nan
nan nan nan nan nan nan nan nan nan nan nan nan nan nan nan nan nan nan nan nan nan nan nan nan nan nan nan nan nan nan nan nan nan nan nan nan nan nan nan nan nan nan nan nan nan nan nan nan nan nan nan nan nan nan nan nan nan nan nan nan nan nan nan nan nan nan nan nan nan nan nan nan nan nan nan nan nan nan nan nan nan nan nan nan nan
nan nan nan nan nan nan nan nan nan nan nan nan nan nan nan nan nan nan nan nan nan nan nan nan nan nan nan nan nan nan nan nan nan nan nan nan nan nan nan nan nan nan nan nan nan nan nan nan nan nan nan nan nan nan nan nan nan nan nan nan nan nan nan nan nan nan nan nan nan nan nan nan nan nan nan nan nan nan nan nan nan nan nan nan nan
nan nan nan nan nan nan nan nan nan nan nan nan nan nan nan nan nan nan nan nan nan nan nan nan nan nan nan nan nan nan nan nan nan nan nan nan nan nan nan nan nan nan nan nan nan nan nan nan nan nan nan nan nan nan nan nan nan nan nan nan nan nan nan nan nan nan nan nan nan nan nan nan nan nan nan nan nan nan nan nan nan nan nan nan nan
nan nan nan nan nan nan nan nan nan nan nan nan nan nan nan nan nan nan nan nan nan nan nan nan nan nan nan nan nan nan nan nan nan nan nan nan nan nan nan nan nan nan nan nan nan nan nan nan nan nan nan nan nan nan nan nan nan nan nan nan nan nan nan nan nan nan nan nan nan nan nan nan nan nan nan nan nan nan nan nan nan nan nan nan nan
nan nan nan nan nan nan nan nan nan nan nan nan nan nan nan nan nan nan nan nan nan nan nan nan nan nan nan nan nan nan nan nan nan nan nan nan nan nan nan nan nan nan nan nan nan nan nan nan nan nan nan nan nan nan nan nan nan nan nan nan nan nan nan nan nan nan nan nan nan nan nan nan nan nan nan nan nan nan nan nan nan nan nan nan nan
nan nan nan nan nan nan nan nan nan nan nan nan nan nan nan nan nan nan nan nan nan nan nan nan nan nan nan nan nan nan nan nan nan nan nan nan nan nan nan nan nan nan nan nan nan nan nan nan nan nan nan nan nan nan nan nan nan nan nan nan nan nan nan nan nan nan nan nan nan nan nan nan nan nan nan nan nan nan nan nan nan nan nan nan nan
nan nan nan nan nan nan nan nan nan nan nan nan nan nan nan nan nan nan nan nan nan nan nan nan nan nan nan nan nan nan nan nan nan nan nan nan nan nan nan nan nan nan nan nan nan nan nan nan nan nan nan nan nan nan nan nan nan nan nan nan nan nan nan nan nan nan nan nan nan nan nan nan nan nan nan nan nan nan nan nan nan nan nan nan nan
nan nan nan nan nan nan nan nan nan nan nan nan nan nan nan nan nan nan nan nan nan nan nan nan nan nan nan nan nan nan nan nan nan nan nan nan nan nan nan nan nan nan nan nan nan nan nan nan nan nan nan nan nan nan nan nan nan nan nan nan nan nan nan nan nan nan nan nan nan nan nan nan nan nan nan nan nan nan nan nan nan nan nan nan nan